• In Spain
  • List of Countries
  • For 7 days
  • Water Temperature
  • Satellite Maps
  • Weather Map
  • Weather Widgets
  • user-avatar
    Login

    Hourly Weather Filippovka

    Today, 15 August, Wednesday

    Time Temperature Precipitation Wind Pressure Humidity
    00:00 +14°C° 0 mm 2 mps 744 mmHg 92%
    01:00 +13°C° 0 mm 2 mps 745 mmHg 94%
    02:00 +13°C° 0 mm 2 mps 745 mmHg 95%
    03:00 +13°C° 0 mm 2 mps 745 mmHg 95%
    04:00 +12°C° 0 mm 2 mps 745 mmHg 96%
    05:00 +13°C° 0 mm 2 mps 745 mmHg 93%
    06:00 +13°C° 0 mm 3 mps 746 mmHg 91%
    07:00 +13°C° 0 mm 3 mps 746 mmHg 88%
    08:00 +16°C° 0 mm 3 mps 746 mmHg 80%
    09:00 +18°C° 0 mm 3 mps 746 mmHg 72%
    10:00 +19°C° 0 mm 4 mps 746 mmHg 64%
    11:00 +20°C° 0 mm 4 mps 746 mmHg 61%
    12:00 +21°C° 0 mm 4 mps 746 mmHg 58%
    13:00 +22°C° 0 mm 4 mps 746 mmHg 54%
    14:00 +22°C° 0 mm 4 mps 746 mmHg 55%
    15:00 +22°C° 0 mm 4 mps 746 mmHg 55%
    16:00 +22°C° 0 mm 4 mps 747 mmHg 55%
    17:00 +21°C° 0 mm 3 mps 747 mmHg 61%
    18:00 +20°C° 0 mm 3 mps 747 mmHg 67%
    19:00 +18°C° 0 mm 2 mps 747 mmHg 74%
    20:00 +17°C° 0 mm 2 mps 747 mmHg 77%
    21:00 +16°C° 0 mm 2 mps 748 mmHg 80%
    22:00 +14°C° 0 mm 2 mps 748 mmHg 83%
    23:00 +14°C° 0 mm 2 mps 748 mmHg 86%

    Tomorrow, 16 August, Thursday

    Time Temperature Precipitation Wind Pressure Humidity
    00:00 +13°C° 0 mm 2 mps 748 mmHg 88%
    01:00 +13°C° 0 mm 2 mps 748 mmHg 90%
    02:00 +13°C° 0 mm 2 mps 748 mmHg 91%
    03:00 +12°C° 0 mm 2 mps 748 mmHg 92%
    04:00 +12°C° 0 mm 2 mps 748 mmHg 93%
    05:00 +13°C° 0 mm 2 mps 748 mmHg 89%
    06:00 +13°C° 0 mm 3 mps 747 mmHg 86%
    07:00 +14°C° 0 mm 3 mps 747 mmHg 82%
    08:00 +15°C° 0.2 mm 4 mps 746 mmHg 80%
    09:00 +16°C° 0.2 mm 5 mps 746 mmHg 78%
    10:00 +17°C° 0.2 mm 6 mps 745 mmHg 76%
    11:00 +17°C° 0.7 mm 6 mps 745 mmHg 81%
    12:00 +17°C° 0.7 mm 6 mps 745 mmHg 86%
    13:00 +16°C° 0.7 mm 6 mps 744 mmHg 90%
    14:00 +17°C° 0.4 mm 6 mps 744 mmHg 91%
    15:00 +17°C° 0.4 mm 5 mps 744 mmHg 93%
    16:00 +17°C° 0.4 mm 5 mps 744 mmHg 94%
    17:00 +18°C° 0.3 mm 4 mps 744 mmHg 94%
    18:00 +18°C° 0.3 mm 4 mps 744 mmHg 94%
    19:00 +19°C° 0.3 mm 3 mps 744 mmHg 94%
    20:00 +18°C° 0.1 mm 3 mps 744 mmHg 95%
    21:00 +17°C° 0.1 mm 3 mps 744 mmHg 96%
    22:00 +16°C° 0.1 mm 3 mps 745 mmHg 97%
    23:00 +14°C° 0 mm 3 mps 745 mmHg 97%

    Day after tomorrow, 17 August, Friday

    Time Temperature Precipitation Wind Pressure Humidity
    00:00 +14°C° 0 mm 2 mps 745 mmHg 98%
    01:00 +13°C° 0 mm 2 mps 745 mmHg 98%
    02:00 +13°C° 0 mm 2 mps 745 mmHg 98%
    03:00 +12°C° 0 mm 2 mps 746 mmHg 98%
    04:00 +12°C° 0 mm 2 mps 746 mmHg 97%
    05:00 +12°C° 0 mm 2 mps 746 mmHg 97%
    06:00 +12°C° 0 mm 2 mps 747 mmHg 96%
    07:00 +13°C° 0 mm 2 mps 747 mmHg 95%
    08:00 +13°C° 0 mm 3 mps 747 mmHg 89%
    09:00 +16°C° 0 mm 3 mps 747 mmHg 83%
    10:00 +17°C° 0 mm 3 mps 748 mmHg 77%
    11:00 +18°C° 0 mm 3 mps 748 mmHg 71%
    12:00 +20°C° 0 mm 3 mps 748 mmHg 64%
    13:00 +21°C° 0 mm 3 mps 748 mmHg 58%
    14:00 +21°C° 0.1 mm 3 mps 748 mmHg 59%
    15:00 +21°C° 0.1 mm 3 mps 748 mmHg 60%
    16:00 +21°C° 0.1 mm 3 mps 748 mmHg 61%
    17:00 +19°C° 0.2 mm 3 mps 748 mmHg 67%
    18:00 +18°C° 0.2 mm 2 mps 748 mmHg 73%
    19:00 +16°C° 0.2 mm 2 mps 748 mmHg 79%
    20:00 +15°C° 0 mm 2 mps 748 mmHg 80%
    21:00 +14°C° 0 mm 2 mps 749 mmHg 82%
    22:00 +13°C° 0 mm 2 mps 749 mmHg 83%
    23:00 +12°C° 0 mm 2 mps 749 mmHg 83%

    18 August, Saturday

    Time Temperature Precipitation Wind Pressure Humidity
    00:00 +12°C° 0 mm 2 mps 749 mmHg 84%
    01:00 +10°C° 0 mm 2 mps 749 mmHg 85%
    02:00 +9°C° 0 mm 2 mps 750 mmHg 86%
    03:00 +9°C° 0 mm 2 mps 750 mmHg 86%
    04:00 +8°C° 0 mm 2 mps 750 mmHg 87%
    05:00 +9°C° 0 mm 2 mps 751 mmHg 84%
    06:00 +10°C° 0 mm 3 mps 751 mmHg 82%
    07:00 +10°C° 0 mm 3 mps 751 mmHg 79%
    08:00 +12°C° 0 mm 4 mps 751 mmHg 73%
    09:00 +13°C° 0 mm 4 mps 751 mmHg 66%
    10:00 +15°C° 0 mm 4 mps 751 mmHg 60%
    11:00 +15°C° 0 mm 4 mps 751 mmHg 58%
    12:00 +17°C° 0 mm 4 mps 751 mmHg 56%
    13:00 +18°C° 0 mm 4 mps 751 mmHg 54%
    14:00 +18°C° 0 mm 4 mps 751 mmHg 54%
    15:00 +18°C° 0 mm 4 mps 751 mmHg 54%
    16:00 +18°C° 0 mm 4 mps 751 mmHg 55%
    17:00 +15°C° 0 mm 4 mps 751 mmHg 60%
    18:00 +14°C° 0 mm 3 mps 751 mmHg 66%
    19:00 +13°C° 0 mm 3 mps 752 mmHg 71%
    20:00 +12°C° 0 mm 3 mps 752 mmHg 75%
    21:00 +10°C° 0 mm 2 mps 752 mmHg 79%
    22:00 +9°C° 0 mm 2 mps 752 mmHg 83%
    23:00 +9°C° 0 mm 2 mps 753 mmHg 85%

    19 August, Sunday

    Time Temperature Precipitation Wind Pressure Humidity
    00:00 +8°C° 0 mm 2 mps 753 mmHg 88%
    01:00 +8°C° 0 mm 2 mps 753 mmHg 90%
    02:00 +7°C° 0 mm 2 mps 753 mmHg 91%
    03:00 +7°C° 0 mm 2 mps 753 mmHg 92%
    04:00 +7°C° 0 mm 2 mps 754 mmHg 93%
    05:00 +9°C° 0 mm 1 mps 754 mmHg 89%
    06:00 +10°C° 0 mm 1 mps 754 mmHg 85%
    07:00 +11°C° 0 mm 1 mps 754 mmHg 81%
    08:00 +13°C° 0 mm 2 mps 754 mmHg 73%
    09:00 +15°C° 0 mm 2 mps 754 mmHg 65%
    10:00 +17°C° 0 mm 2 mps 754 mmHg 57%
    11:00 +18°C° 0 mm 2 mps 753 mmHg 54%
    12:00 +18°C° 0 mm 2 mps 753 mmHg 50%
    13:00 +19°C° 0 mm 2 mps 753 mmHg 47%
    14:00 +19°C° 0 mm 2 mps 752 mmHg 48%
    15:00 +20°C° 0 mm 2 mps 752 mmHg 48%
    16:00 +20°C° 0 mm 2 mps 752 mmHg 49%
    17:00 +18°C° 0 mm 2 mps 752 mmHg 55%
    18:00 +18°C° 0 mm 1 mps 752 mmHg 62%
    19:00 +16°C° 0 mm 1 mps 752 mmHg 68%
    20:00 +14°C° 0 mm 1 mps 752 mmHg 72%
    21:00 +13°C° 0 mm 1 mps 752 mmHg 75%
    22:00 +11°C° 0 mm 1 mps 752 mmHg 79%
    23:00 +11°C° 0 mm 1 mps 752 mmHg 81%

    20 August, Monday

    Time Temperature Precipitation Wind Pressure Humidity
    00:00 +9°C° 0 mm 0 mps 752 mmHg 83%
    01:00 +9°C° 0 mm 0 mps 752 mmHg 85%
    02:00 +9°C° 0 mm 0 mps 752 mmHg 85%
    03:00 +8°C° 0 mm 0 mps 752 mmHg 86%
    04:00 +8°C° 0 mm 0 mps 752 mmHg 87%
    05:00 +9°C° 0 mm 0 mps 752 mmHg 84%
    06:00 +10°C° 0 mm 0 mps 752 mmHg 80%
    07:00 +12°C° 0 mm 0 mps 752 mmHg 77%
    08:00 +14°C° 0 mm 0 mps 751 mmHg 71%
    09:00 +16°C° 0 mm 0 mps 751 mmHg 64%
    10:00 +20°C° 0 mm 1 mps 751 mmHg 58%
    11:00 +21°C° 0 mm 1 mps 751 mmHg 55%
    12:00 +22°C° 0 mm 1 mps 750 mmHg 51%
    13:00 +23°C° 0 mm 1 mps 750 mmHg 48%
    14:00 +23°C° 0 mm 1 mps 750 mmHg 48%
    15:00 +23°C° 0 mm 1 mps 749 mmHg 48%
    16:00 +23°C° 0 mm 1 mps 749 mmHg 48%
    17:00 +22°C° 0 mm 1 mps 749 mmHg 55%
    18:00 +20°C° 0 mm 1 mps 749 mmHg 62%
    19:00 +19°C° 0 mm 1 mps 749 mmHg 69%
    20:00 +18°C° 0 mm 1 mps 749 mmHg 72%
    21:00 +15°C° 0 mm 1 mps 749 mmHg 76%
    22:00 +14°C° 0 mm 1 mps 749 mmHg 79%
    23:00 +14°C° 0 mm 1 mps 748 mmHg 82%
    Show more